Regional Weather Roundup
Issued by NWS

Home | Current Version | Previous Version | Text Only | Print | Product List | Glossary Off
Versions: 1 2 3 4 5 6 7 8 9 10 11 12 13 14 15 16 17 18 19 20 21 22 23 24 25 26 27 28 29 30 31 32 33 34 35 36 37 38 39 40 41 42 43 44 45 46 47 48 49 50

273
ASUS45 KCYS 230910
RWRWY

WYOMING REGIONAL WEATHER ROUNDUP
NATIONAL WEATHER SERVICE CHEYENNE WY
300 AM MDT SUN APR 23 2017

NOTE:  "FAIR" INDICATES FEW OR NO CLOUDS BELOW 12,000 FEET
WITH NO SIGNIFICANT WEATHER AND/OR OBSTRUCTIONS TO VISIBILITY.

WYZ001-231000-
YELLOWSTONE NATIONAL PARK

CITY           SKY/WX    TMP DP  RH WIND       PRES   REMARKS
LK YELLOWSTONE   N/A     26  24  92 CALM      30.03F
W YELLOWSTONE  NOT AVBL

$$
WYZ002>013-054>058-071-098>099-231000-
NORTHERN WYOMING

CITY           SKY/WX    TMP DP  RH WIND       PRES   REMARKS
JACKSON        FAIR      28  27  93 N7        29.99F WCI  21
CODY           FAIR      42  37  82 CALM      29.92F
GREYBULL       FAIR      40  35  83 SE3       29.90F
WORLAND        FAIR      41  39  93 SE6       29.90F
SHERIDAN       FAIR      36  32  85 SW3       29.88F
BUFFALO        FAIR      42  31  64 N5        29.90F
GILLETTE       FAIR      45  35  68 S16       29.87F
HULETT         FAIR      50  30  46 S10       29.90F
NEWCASTLE      FAIR      45  30  57 E16G23    29.97F

$$
WYZ014>020-022>026-101>103-231000-
CENTRAL WYOMING

CITY           SKY/WX    TMP DP  RH WIND       PRES   REMARKS
BIG PINEY      FAIR      28  23  81 CALM      30.03F
PINEDALE       FAIR      28  21  74 CALM      30.04F
DUBOIS         FAIR      34  19  55 NW10      29.98F WCI  26
LANDER         FAIR      45  30  55 CALM      29.94F
RIVERTON       FAIR      44  34  67 NW9       29.94F
CASPER         FAIR      45  31  58 SW13      29.95F
DOUGLAS        FAIR      39  32  76 SE9       29.97F WCI  33

$$
WYZ021-027>030-104>119-231000-
SOUTHERN WYOMING

CITY           SKY/WX    TMP DP  RH WIND       PRES   REMARKS
EVANSTON       FAIR      39  22  50 SE6       30.01F WCI  35
KEMMERER         N/A     32  28  86 N5        30.03F WCI  27
FORT BRIDGER   FAIR      38  20  48 S8        30.05F WCI  32
ROCK SPRINGS   FAIR      40  22  48 SE9       30.03F WCI  34
DIXON            N/A     33  25  71 E3        30.12F
RAWLINS        FAIR      43  18  36 CALM      30.05F
SARATOGA       FAIR      37  21  52 SE10      30.08F WCI  30
LARAMIE        FAIR      30  25  81 S9        30.06F WCI  22
CHEYENNE       FAIR      33  29  85 W7        30.07F WCI  27
TORRINGTON     FAIR      43  30  60 SE5       30.02F
PINE BLUFFS    FAIR      36  32  87 S10G18    30.07F WCI  28

$$




USA.gov is the U.S. government's official web portal to all federal, state and local government web resources and services.